AMX382 SLLP-SPZO

Flight info

Callsign AMX382
Flight time N/A
Altitude 36000
Route ELAKO UM657 JUL UV11 ILMOX
Aircraft B738/M-SDGIJ1LRWY/SB1

Departure

Time N/A
Airport El Alto International Airport (SLLP)

Arrival

Time 2026-04-25 05:01
Airport Alejandro Velasco Astete International Airport (SPZO)
Time Latitude Longitude Altitude Speed Heading
2026-04-25 04:36 -15.42388 -70.18910 36896 ft 437 kts 322°
2026-04-25 04:36 -15.40004 -70.20844 36901 ft 436 kts 324°
2026-04-25 04:37 -15.35105 -70.24622 36900 ft 436 kts 324°
2026-04-25 04:37 -15.30274 -70.28344 36905 ft 436 kts 324°
2026-04-25 04:38 -15.25402 -70.32149 36902 ft 437 kts 323°
2026-04-25 04:38 -15.20593 -70.35946 36902 ft 436 kts 323°
2026-04-25 04:39 -15.15770 -70.39770 36904 ft 437 kts 323°
2026-04-25 04:39 -15.10947 -70.43598 36901 ft 437 kts 323°
2026-04-25 04:40 -15.06115 -70.47433 36903 ft 437 kts 323°
2026-04-25 04:40 -15.01287 -70.51268 36903 ft 437 kts 323°
2026-04-25 04:41 -14.96469 -70.55093 36907 ft 436 kts 323°
2026-04-25 04:41 -14.91630 -70.58929 36914 ft 437 kts 323°
2026-04-25 04:42 -14.86827 -70.62734 36899 ft 436 kts 323°
2026-04-25 04:42 -14.81996 -70.66560 36931 ft 437 kts 324°
2026-04-25 04:43 -14.77151 -70.70395 36925 ft 437 kts 323°
2026-04-25 04:43 -14.72343 -70.74197 36955 ft 437 kts 323°
2026-04-25 04:44 -14.67506 -70.78021 36941 ft 437 kts 323°
2026-04-25 04:44 -14.62685 -70.81831 36968 ft 437 kts 323°
2026-04-25 04:45 -14.57851 -70.85648 37002 ft 437 kts 323°
2026-04-25 04:45 -14.52997 -70.89478 37034 ft 438 kts 323°
2026-04-25 04:46 -14.48153 -70.93298 37065 ft 438 kts 323°
2026-04-25 04:46 -14.43340 -70.97092 36685 ft 434 kts 324°
2026-04-25 04:46 -14.40934 -70.98990 36136 ft 431 kts 324°
2026-04-25 04:47 -14.38552 -71.00867 35507 ft 430 kts 324°
2026-04-25 04:47 -14.36187 -71.02730 34822 ft 431 kts 324°
2026-04-25 04:47 -14.33813 -71.04597 34252 ft 430 kts 324°
2026-04-25 04:47 -14.31410 -71.06486 33751 ft 440 kts 324°
2026-04-25 04:48 -14.28957 -71.08415 33196 ft 441 kts 324°
2026-04-25 04:48 -14.26517 -71.10333 32661 ft 437 kts 324°
2026-04-25 04:48 -14.24137 -71.12206 32171 ft 433 kts 324°
2026-04-25 04:48 -14.21730 -71.14101 31658 ft 429 kts 324°
2026-04-25 04:49 -14.19414 -71.15923 31082 ft 417 kts 324°
2026-04-25 04:49 -14.17139 -71.17715 30593 ft 403 kts 324°
2026-04-25 04:49 -14.14946 -71.19441 30136 ft 391 kts 324°
2026-04-25 04:49 -14.12826 -71.21110 29703 ft 379 kts 324°
2026-04-25 04:50 -14.10753 -71.22740 29180 ft 371 kts 324°
2026-04-25 04:50 -14.08723 -71.24335 28557 ft 367 kts 324°
2026-04-25 04:50 -14.06699 -71.25924 27912 ft 364 kts 324°
2026-04-25 04:50 -14.04684 -71.27505 27403 ft 359 kts 324°
2026-04-25 04:51 -14.02708 -71.29054 26943 ft 356 kts 325°
2026-04-25 04:51 -14.00774 -71.30571 26543 ft 351 kts 324°
2026-04-25 04:51 -13.98822 -71.32101 26137 ft 348 kts 324°
2026-04-25 04:51 -13.96911 -71.33599 25725 ft 346 kts 324°
2026-04-25 04:52 -13.94997 -71.35098 25307 ft 345 kts 324°
2026-04-25 04:52 -13.93073 -71.36605 24871 ft 344 kts 324°
2026-04-25 04:52 -13.91178 -71.38090 24477 ft 342 kts 324°
2026-04-25 04:52 -13.89295 -71.39565 24070 ft 341 kts 324°
2026-04-25 04:53 -13.87395 -71.41054 23662 ft 340 kts 324°
2026-04-25 04:53 -13.85521 -71.42521 23296 ft 339 kts 324°
2026-04-25 04:53 -13.83656 -71.43981 22915 ft 339 kts 324°
2026-04-25 04:53 -13.81757 -71.45467 22498 ft 340 kts 325°
2026-04-25 04:54 -13.79877 -71.46937 22076 ft 341 kts 324°
2026-04-25 04:54 -13.77977 -71.48424 21680 ft 341 kts 324°
2026-04-25 04:54 -13.76109 -71.49885 21283 ft 342 kts 324°
2026-04-25 04:54 -13.74196 -71.51380 20875 ft 342 kts 324°
2026-04-25 04:55 -13.72302 -71.52862 20459 ft 342 kts 324°
2026-04-25 04:55 -13.70408 -71.54343 20041 ft 343 kts 324°
2026-04-25 04:55 -13.68525 -71.55814 19632 ft 342 kts 324°
2026-04-25 04:55 -13.66620 -71.57337 19193 ft 343 kts 321°
2026-04-25 04:56 -13.64973 -71.59129 18607 ft 346 kts 305°
2026-04-25 04:56 -13.63878 -71.61272 17851 ft 349 kts 293°
2026-04-25 04:56 -13.63024 -71.63640 16913 ft 353 kts 290°
2026-04-25 04:56 -13.62256 -71.65986 16263 ft 346 kts 289°
2026-04-25 04:57 -13.61624 -71.68333 15732 ft 337 kts 281°
2026-04-25 04:57 -13.61363 -71.70702 15242 ft 330 kts 279°
2026-04-25 04:57 -13.60769 -71.72943 14710 ft 321 kts 293°
2026-04-25 04:57 -13.59895 -71.74983 14172 ft 300 kts 297°
2026-04-25 04:58 -13.59042 -71.76801 13784 ft 270 kts 297°
2026-04-25 04:58 -13.58287 -71.78455 13414 ft 244 kts 296°
2026-04-25 04:58 -13.57628 -71.79987 13104 ft 222 kts 295°
2026-04-25 04:58 -13.57055 -71.81383 12829 ft 205 kts 294°
2026-04-25 04:59 -13.56563 -71.82715 12629 ft 195 kts 292°
2026-04-25 04:59 -13.56148 -71.83979 12365 ft 176 kts 290°
2026-04-25 04:59 -13.55777 -71.85112 12117 ft 163 kts 292°
2026-04-25 04:59 -13.55307 -71.86189 11953 ft 171 kts 302°
2026-04-25 05:00 -13.54665 -71.87245 11740 ft 175 kts 305°
2026-04-25 05:00 -13.54112 -71.88361 11504 ft 177 kts 287°
2026-04-25 05:00 -13.53966 -71.89634 11260 ft 179 kts 274°
2026-04-25 05:00 -13.53879 -71.90900 10986 ft 177 kts 278°
2026-04-25 05:01 -13.53754 -71.92131 10800 ft 171 kts 277°
2026-04-25 05:01 -13.53630 -71.93256 10780 ft 130 kts 276°
2026-04-25 05:01 -13.53566 -71.93932 10812 ft 63 kts 275°
2026-04-25 05:01 -13.53540 -71.94248 10826 ft 27 kts 271°
2026-04-25 05:02 -13.53578 -71.94335 10829 ft 7 kts 202°
2026-04-25 05:02 -13.53605 -71.94342 10829 ft 1 kts 187°
2026-04-25 05:02 -13.53623 -71.94344 10829 ft 1 kts 189°
2026-04-25 05:02 -13.53656 -71.94360 10830 ft 8 kts 206°
2026-04-25 05:03 -13.53683 -71.94383 10832 ft 6 kts 273°
2026-04-25 05:03 -13.53704 -71.94435 10835 ft 9 kts 213°
2026-04-25 05:03 -13.53757 -71.94434 10836 ft 4 kts 155°
2026-04-25 05:03 -13.53770 -71.94421 10836 ft 0 kts 120°
2026-04-25 05:04 -13.53774 -71.94411 10836 ft 1 kts 118°
2026-04-25 05:04 -13.53777 -71.94404 10835 ft 1 kts 114°
2026-04-25 05:04 -13.53778 -71.94403 10835 ft 0 kts 114°